CW1631 Weather Reports


Display with metric or nautical units.
time (UTC)temp
F
wind
direction
speed
MPH
gust
MPH
rain 1hr
in
rain 24hr
in
rain mn
in
humidity
%
barometer
mb
20260506211825 48 284 4.0 6.0 0.00 0.43 0.43 94 1008.4
20260506211321 48 260 1.0 2.0 0.00 0.43 0.43 94 1008.3
20260506210818 48 279 1.0 1.0 0.00 0.43 0.43 94 1008.5
20260506210315 48 293 1.0 2.0 0.05 0.43 0.43 94 1008.3
20260506205812 48 332 5.0 6.0 0.05 0.43 0.43 94 1008.2
20260506205308 48 340 2.0 2.0 0.00 0.42 0.42 94 1008.3
20260506204804 48 311 5.0 7.0 0.00 0.42 0.42 94 1008.3
20260506204302 48 315 2.0 2.0 0.07 0.42 0.42 94 1007.9
20260506203800 48 331 2.0 2.0 0.07 0.42 0.42 94 1008.2
20260506203257 48 335 3.0 3.0 0.00 0.41 0.41 94 1007.8
20260506202754 48 20 3.0 3.0 0.00 0.41 0.41 94 1007.6
20260506202251 48 307 1.0 2.0 0.00 0.41 0.41 95 1007.7
20260506201747 48 44 0.0 1.0 0.00 0.41 0.41 95 1007.6
20260506201244 48 348 1.0 1.0 0.00 0.41 0.41 94 1007.4
20260506200741 48 4 2.0 2.0 0.00 0.41 0.41 95 1007.3
20260506200237 48 313 1.0 1.0 0.05 0.41 0.41 95 1007.4
20260506195734 48 278 3.0 5.0 0.05 0.41 0.41 95 1007.6
20260506195230 48 337 2.0 2.0 0.00 0.40 0.40 95 1007.7
20260506194728 48 282 8.0 10.0 0.07 0.40 0.40 95 1007.6
20260506194224 49 268 3.0 3.0 0.12 0.40 0.40 95 1007.5
20260506193722 49 297 3.0 3.0 0.05 0.39 0.39 95 1007.3
20260506193219 49 250 0.0 0.0 0.00 0.38 0.38 95 1007.5
20260506192715 49 285 0.0 0.0 0.00 0.38 0.38 95 1007.2
20260506192212 49 275 0.0 0.0 0.07 0.38 0.38 95 1007.3
20260506191709 49 50 1.0 1.0 0.07 0.38 0.38 95 1007.0
20260506191205 48 75 2.0 2.0 0.00 0.37 0.37 94 1007.1
20260506190702 49 63 1.0 1.0 0.00 0.37 0.37 94 1007.1
20260506190153 49 70 2.0 2.0 0.00 0.37 0.37 94 1006.8
20260506185650 49 225 0.0 1.0 0.00 0.37 0.37 94 1006.8
20260506185146 49 323 1.0 1.0 0.00 0.37 0.37 94 1006.9
20260506184644 49 308 1.0 2.0 0.00 0.37 0.37 94 1006.9
20260506184141 49 2 0.0 0.0 0.00 0.37 0.37 94 1006.9
20260506183638 49 324 4.0 5.0 0.00 0.37 0.37 94 1006.8
20260506183134 49 280 0.0 0.0 0.00 0.37 0.37 94 1006.5
20260506182631 49 288 3.0 5.0 0.00 0.37 0.37 94 1006.5
20260506182128 49 279 5.0 6.0 0.00 0.37 0.37 94 1006.5
20260506181626 49 323 3.0 3.0 0.00 0.37 0.37 94 1006.3
20260506181123 49 300 1.0 1.0 0.00 0.37 0.37 94 1006.2
20260506180620 49 338 2.0 2.0 0.00 0.37 0.37 94 1006.3
20260506180116 50 352 4.0 5.0 0.05 0.37 0.37 94 1006.3
20260506175613 50 11 6.0 7.0 0.05 0.37 0.37 94 1006.2
20260506175108 51 357 5.0 7.0 0.05 0.37 0.37 93 1006.3
20260506174608 51 295 3.0 5.0 0.00 0.36 0.36 94 1006.0
20260506174103 52 297 3.0 3.0 0.00 0.36 0.36 94 1006.0
20260506173601 52 309 1.0 1.0 0.00 0.36 0.36 94 1005.8
20260506173058 52 314 3.0 3.0 0.00 0.36 0.36 93 1005.7
20260506172556 52 312 3.0 3.0 0.00 0.36 0.36 93 1005.5
20260506172051 54 305 10.0 14.0 0.00 0.36 0.36 92 1005.5
20260506171549 57 309 7.0 9.0 0.00 0.36 0.36 92 1005.4
20260506171047 58 247 2.0 2.0 0.07 0.36 0.36 95 1005.2
20260506170544 58 247 4.0 5.0 0.07 0.36 0.36 94 1005.4
20260506170041 58 225 3.0 3.0 0.00 0.35 0.35 94 1005.6
20260506165540 58 223 3.0 3.0 0.00 0.35 0.35 94 1005.5
20260506165036 58 227 3.0 3.0 0.07 0.35 0.35 94 1005.5
20260506164533 58 199 5.0 6.0 0.07 0.35 0.35 94 1005.6
20260506164030 58 221 6.0 7.0 0.00 0.34 0.34 94 1005.4
20260506163526 58 241 3.0 5.0 0.00 0.34 0.34 93 1005.5
20260506163021 58 249 1.0 1.0 0.00 0.34 0.34 93 1005.5
20260506162518 58 245 7.0 8.0 0.00 0.34 0.34 93 1005.5
20260506162015 58 212 5.0 6.0 0.00 0.34 0.34 93 1005.4
20260506161513 57 210 9.0 9.0 0.00 0.34 0.34 93 1005.4
20260506161009 57 221 5.0 6.0 0.00 0.34 0.34 93 1005.7
20260506160507 57 221 6.0 6.0 0.00 0.34 0.34 93 1005.5
20260506160004 57 234 3.0 3.0 0.05 0.34 0.34 93 1005.7
20260506155502 57 215 6.0 7.0 0.05 0.34 0.34 93 1005.5
20260506153634 57 224 4.0 6.0 0.07 0.33 0.33 94 1005.6
20260506153131 57 240 1.0 1.0 0.05 0.32 0.32 94 1005.8
20260506152628 57 218 5.0 6.0 0.05 0.32 0.32 94 1006.0
20260506152126 57 215 5.0 6.0 0.00 0.31 0.31 94 1006.0
20260506151624 57 231 5.0 6.0 0.07 0.31 0.31 95 1006.0
20260506151121 57 215 3.0 6.0 0.07 0.31 0.31 95 1005.7
20260506150618 57 254 0.0 1.0 0.00 0.30 0.30 95 1005.8
20260506150115 57 260 2.0 2.0 0.05 0.30 0.30 95 1005.9
20260506145612 57 222 3.0 3.0 0.05 0.30 0.30 96 1005.9
20260506145108 57 228 1.0 2.0 0.00 0.29 0.29 96 1005.6
20260506144605 57 275 0.0 1.0 0.00 0.29 0.29 97 1005.5
20260506144102 56 257 0.0 0.0 0.07 0.29 0.29 97 1005.6
20260506143600 56 267 2.0 2.0 0.07 0.29 0.29 96 1005.6
20260506143058 56 258 0.0 1.0 0.00 0.28 0.28 96 1005.8
20260506142556 56 266 0.0 0.0 0.00 0.28 0.28 97 1005.7
20260506142054 55 265 1.0 1.0 0.00 0.28 0.28 96 1005.8
20260506141551 55 288 1.0 1.0 0.00 0.28 0.28 97 1005.9
20260506141050 54 296 1.0 1.0 0.05 0.28 0.28 97 1005.9
20260506140547 54 271 0.0 0.0 0.05 0.28 0.28 97 1006.1
20260506140044 53 282 0.0 1.0 0.07 0.27 0.27 97 1005.9
20260506135541 53 293 1.0 1.0 0.12 0.27 0.27 96 1005.9
20260506135037 53 279 0.0 0.0 0.12 0.26 0.26 96 1006.1
20260506134533 53 298 0.0 0.0 0.12 0.25 0.25 96 1006.2
20260506134029 52 255 0.0 0.0 0.12 0.24 0.24 96 1006.4
20260506133527 51 315 1.0 1.0 0.14 0.23 0.23 96 1006.5
20260506133023 51 332 1.0 2.0 0.12 0.22 0.22 96 1006.5
20260506132521 51 198 1.0 1.0 0.12 0.21 0.21 96 1006.5
20260506132018 51 229 0.0 0.0 0.12 0.20 0.20 96 1006.8
20260506131515 51 220 1.0 2.0 0.17 0.19 0.19 96 1007.1
20260506131011 51 295 1.0 1.0 0.24 0.18 0.18 96 1006.9
20260506130508 51 280 1.0 2.0 0.24 0.16 0.16 96 1006.8
20260506130006 51 271 0.0 0.0 0.19 0.14 0.14 96 1007.1
20260506125504 51 255 0.0 0.0 0.14 0.12 0.12 95 1006.9
20260506125001 51 267 0.0 0.0 0.12 0.11 0.11 95 1007.0
20260506124459 51 267 0.0 0.0 0.05 0.10 0.10 96 1006.6
20260506123957 51 251 0.0 0.0 0.07 0.09 0.09 95 1006.5
20260506123454 51 262 0.0 0.0 0.07 0.09 0.09 95 1006.4
20260506122952 51 289 0.0 0.0 0.00 0.08 0.08 95 1006.3
20260506122448 51 323 0.0 0.0 0.00 0.08 0.08 95 1006.2
20260506121947 51 222 0.0 0.0 0.00 0.08 0.08 95 1006.2
20260506121444 50 296 1.0 1.0 0.05 0.08 0.08 95 1006.4
20260506120940 50 38 3.0 3.0 0.05 0.08 0.08 95 1006.3
20260506120438 50 71 1.0 2.0 0.00 0.07 0.07 95 1006.5
20260506115935 50 283 0.0 0.0 0.00 0.07 0.07 95 1006.8
20260506115433 50 288 0.0 0.0 0.00 0.07 0.07 95 1007.0
20260506114931 50 36 1.0 1.0 0.07 0.07 0.07 95 1006.8
20260506114428 50 95 1.0 2.0 0.07 0.07 0.07 95 1006.8
20260506113927 50 57 1.0 1.0 0.00 0.06 0.06 95 1006.9
20260506113424 50 16 1.0 1.0 0.00 0.06 0.06 95 1007.0
20260506112915 50 348 1.0 1.0 0.00 0.06 0.06 95 1006.8
20260506112413 50 326 1.0 1.0 0.00 0.06 0.06 95 1007.1
20260506111910 50 291 0.0 0.0 0.05 0.06 0.06 94 1007.0
20260506111408 50 341 1.0 1.0 0.05 0.06 0.06 94 1007.1
20260506110905 50 27 1.0 1.0 0.00 0.05 0.05 94 1007.3
20260506110402 50 65 1.0 1.0 0.07 0.05 0.05 94 1007.1
20260506105858 50 105 1.0 1.0 0.07 0.05 0.05 94 1007.1
20260506105355 50 217 0.0 1.0 0.07 0.05 0.05 94 1007.2
20260506104853 50 258 0.0 0.0 0.05 0.04 0.04 94 1007.1
20260506104350 50 243 0.0 1.0 0.05 0.04 0.04 94 1007.2
20260506103848 50 229 0.0 0.0 0.07 0.03 0.03 94 1007.1
20260506103345 50 223 1.0 1.0 0.07 0.03 0.03 94 1007.0
20260506102842 50 241 0.0 1.0 0.00 0.02 0.02 94 1007.1
20260506102340 50 235 0.0 0.0 0.05 0.02 0.02 94 1006.9
20260506101837 50 117 1.0 1.0 0.05 0.02 0.02 93 1006.7
20260506101333 50 185 1.0 1.0 0.00 0.01 0.01 93 1006.6
20260506100831 50 41 1.0 1.0 0.00 0.01 0.01 93 1006.6
20260506100329 50 199 1.0 1.0 0.00 0.01 0.01 93 1006.4
20260506095827 50 264 0.0 0.0 0.00 0.01 0.01 92 1006.6
20260506095324 50 273 0.0 0.0 0.00 0.01 0.01 92 1006.5
20260506094821 50 323 0.0 0.0 0.00 0.01 0.01 92 1006.4
20260506094320 50 63 1.0 2.0 0.00 0.01 0.01 92 1006.5
20260506093817 50 10 1.0 1.0 0.00 0.01 0.01 91 1006.3
20260506093314 50 34 2.0 2.0 0.07 0.01 0.01 91 1006.6
20260506092812 50 64 1.0 1.0 0.07 0.01 0.01 90 1006.7
20260506092310 50 52 1.0 1.0 0.07 0.01 0.01 90 1006.7
20260506091807 50 68 3.0 3.0 0.00 0.00 0.00 89 1006.7
20260506091304 50 82 1.0 2.0 0.00 0.00 0.00 89 1006.8
20260506090802 51 72 1.0 1.0 0.00 0.00 0.00 88 1007.1
20260506090259 51 14 3.0 3.0 0.00 0.00 0.00 88 1006.8
20260506085755 51 58 1.0 1.0 0.00 0.00 0.00 88 1007.0
20260506085252 51 105 2.0 2.0 0.00 0.00 0.00 88 1007.2
20260506084748 51 133 2.0 2.0 0.00 0.00 0.00 88 1007.1
20260506084245 51 244 0.0 1.0 0.00 0.00 0.00 87 1007.2
20260506083742 51 117 2.0 2.0 0.00 0.00 0.00 87 1007.1
20260506083240 51 114 1.0 1.0 0.00 0.00 0.00 87 1007.2
20260506082737 51 61 2.0 2.0 0.00 0.00 0.00 88 1006.9
20260506082232 51 61 1.0 2.0 0.00 0.00 0.00 88 1007.1
20260506081730 51 0 1.0 1.0 0.00 0.00 0.00 88 1007.1
20260506081227 51 341 1.0 1.0 0.00 0.00 0.00 88 1006.9
20260506080726 51 56 2.0 2.0 0.00 0.00 0.00 88 1007.1
20260506080221 51 68 2.0 2.0 0.00 0.00 0.00 88 1006.8
20260506073206 51 301 1.0 1.0 0.00 0.00 0.00 88 1007.3
20260506072702 51 318 1.0 1.0 0.00 0.00 0.00 88 1007.2
20260506072200 51 317 1.0 1.0 0.00 0.00 0.00 87 1007.1
20260506071657 52 336 1.0 1.0 0.00 0.00 0.00 87 1007.2
20260506071155 52 43 1.0 2.0 0.00 0.00 0.00 87 1007.1
20260506070652 52 6 2.0 3.0 0.00 0.00 0.00 87 1007.1
20260506070148 52 11 2.0 2.0 0.00 0.00 0.00 87 1007.5
20260506062126 52 284 0.0 0.0 0.00 0.00 0.00 88 1008.0
20260506061621 51 54 2.0 2.0 0.00 0.00 0.00 88 1007.9
20260506061120 51 39 2.0 2.0 0.00 0.00 0.00 88 1007.7
20260506060618 51 276 0.0 0.0 0.00 0.00 0.00 88 1008.1
20260506060114 51 299 0.0 1.0 0.00 0.00 0.00 88 1008.2
20260506051046 52 298 0.0 0.0 0.00 0.00 0.00 86 1008.7
20260506050544 53 148 1.0 2.0 0.00 0.00 0.00 85 1009.2
20260506045035 53 359 2.0 3.0 0.00 0.00 0.00 83 1009.2
20260506044533 53 318 1.0 1.0 0.00 0.00 0.00 84 1009.1
20260506044029 53 312 1.0 1.0 0.00 0.00 0.00 83 1008.8
20260506043526 53 27 1.0 1.0 0.00 0.00 0.00 83 1008.7
20260506043025 53 67 1.0 1.0 0.00 0.00 0.00 83 1008.6
20260506042523 53 75 1.0 1.0 0.00 0.00 0.00 83 1008.9
20260506042021 53 50 1.0 2.0 0.00 0.00 0.00 83 1008.8
20260506041520 54 50 1.0 1.0 0.00 0.00 0.00 82 1009.1
20260506041016 54 110 1.0 2.0 0.00 0.00 0.00 82 1008.9
20260506040514 54 58 1.0 1.0 0.00 0.00 0.00 81 1008.9
20260506040009 54 49 1.0 2.0 0.00 0.02 0.02 80 1009.3
20260506035507 54 18 1.0 2.0 0.00 0.02 0.02 80 1009.4
20260506035003 55 59 1.0 2.0 0.00 0.02 0.02 80 1009.3
20260506034501 55 44 1.0 2.0 0.00 0.02 0.02 80 1009.3
20260506033957 55 333 2.0 2.0 0.00 0.02 0.02 80 1009.3
20260506033455 55 322 1.0 1.0 0.00 0.02 0.02 80 1009.4
20260506032951 55 18 2.0 2.0 0.00 0.02 0.02 80 1009.1
20260506032449 55 7 1.0 2.0 0.00 0.02 0.02 80 1009.2
20260506031945 55 47 3.0 3.0 0.00 0.02 0.02 80 1009.2
20260506031443 56 342 1.0 1.0 0.00 0.02 0.02 79 1009.4
20260506030940 56 324 3.0 3.0 0.00 0.02 0.02 79 1009.4
20260506030438 56 17 1.0 2.0 0.00 0.02 0.02 78 1009.3
20260506025934 56 348 3.0 3.0 0.00 0.02 0.02 77 1009.4
20260506025432 57 353 3.0 3.0 0.00 0.02 0.02 76 1009.4
20260506024928 57 331 3.0 3.0 0.00 0.02 0.02 76 1009.5
20260506024425 57 283 1.0 2.0 0.00 0.02 0.02 76 1009.6
20260506023921 57 340 2.0 3.0 0.00 0.02 0.02 78 1009.5
20260506023418 57 9 2.0 3.0 0.00 0.02 0.02 79 1009.2
20260506022915 57 311 5.0 6.0 0.00 0.02 0.02 80 1009.4
20260506022413 58 143 4.0 6.0 0.00 0.02 0.02 81 1009.4
20260506021910 58 304 1.0 2.0 0.00 0.02 0.02 81 1009.1
20260506021407 58 13 3.0 3.0 0.00 0.02 0.02 81 1009.2
20260506020904 58 7 10.0 11.0 0.00 0.02 0.02 81 1008.8
20260506020402 59 358 7.0 9.0 0.00 0.02 0.02 83 1008.9
20260506015859 59 341 6.0 8.0 0.00 0.02 0.02 83 1008.9
20260506015356 59 329 5.0 6.0 0.00 0.02 0.02 83 1008.8
20260506014853 60 292 5.0 7.0 0.00 0.02 0.02 83 1008.8
20260506014350 60 9 7.0 8.0 0.00 0.02 0.02 82 1008.9
20260506013846 61 324 4.0 5.0 0.00 0.02 0.02 83 1008.5
20260506013344 61 326 8.0 9.0 0.00 0.02 0.02 83 1008.2
20260506012840 62 347 2.0 3.0 0.00 0.02 0.02 82 1008.2
20260506012337 62 31 4.0 5.0 0.00 0.02 0.02 82 1008.1
20260506011835 62 297 2.0 2.0 0.00 0.02 0.02 81 1008.2
20260506011331 62 201 1.0 1.0 0.00 0.02 0.02 81 1008.0
20260506010829 62 235 1.0 1.0 0.00 0.02 0.02 81 1008.1
20260506010327 62 256 0.0 0.0 0.00 0.02 0.02 81 1007.9
20260506005823 62 309 2.0 3.0 0.00 0.02 0.02 82 1007.9
20260506005320 62 302 1.0 1.0 0.00 0.02 0.02 83 1007.7
20260506004816 62 275 1.0 1.0 0.00 0.02 0.02 83 1007.7
20260506004314 62 290 1.0 1.0 0.00 0.02 0.02 83 1007.4
20260506003809 62 287 4.0 6.0 0.00 0.02 0.02 85 1007.4
20260506003306 61 285 3.0 3.0 0.00 0.02 0.02 86 1007.4
20260506002802 62 306 3.0 3.0 0.00 0.02 0.02 85 1007.3
20260506002259 62 271 2.0 2.0 0.00 0.02 0.02 84 1007.0
20260506001754 62 299 2.0 2.0 0.00 0.02 0.02 83 1006.8
20260506001252 63 260 0.0 0.0 0.00 0.02 0.02 82 1007.1
20260506000749 63 266 0.0 0.0 0.00 0.02 0.02 82 1006.6
20260506000247 63 266 0.0 1.0 0.00 0.02 0.02 81 1006.8
20260505235743 63 252 1.0 1.0 0.00 0.02 0.02 81 1006.9
20260505235241 63 227 3.0 3.0 0.00 0.02 0.02 81 1006.8
20260505234738 63 250 2.0 2.0 0.00 0.02 0.02 82 1006.7
20260505234235 63 251 0.0 0.0 0.00 0.02 0.02 82 1006.7
20260505233731 63 244 0.0 1.0 0.00 0.02 0.02 82 1006.8
20260505233230 64 259 1.0 1.0 0.00 0.02 0.02 81 1006.7
20260505232726 64 266 2.0 2.0 0.00 0.02 0.02 80 1006.6
20260505232224 64 237 2.0 2.0 0.00 0.02 0.02 81 1006.5
20260505231721 64 198 2.0 2.0 0.00 0.02 0.02 81 1006.6
20260505231220 64 218 1.0 2.0 0.00 0.02 0.02 80 1006.7
20260505230717 64 247 0.0 1.0 0.00 0.02 0.02 80 1006.4
20260505230214 64 282 1.0 2.0 0.05 0.02 0.02 79 1006.7
20260505225710 64 273 0.0 1.0 0.05 0.02 0.02 78 1006.8
20260505225207 65 277 0.0 1.0 0.00 0.01 0.01 76 1006.7
20260505224703 65 237 2.0 2.0 0.00 0.01 0.01 76 1006.6
20260505224201 65 224 7.0 8.0 0.00 0.01 0.01 76 1006.8
20260505223658 65 228 6.0 7.0 0.00 0.01 0.01 76 1006.9
20260505223154 65 239 4.0 5.0 0.00 0.01 0.01 76 1006.7
20260505222650 66 218 5.0 6.0 0.00 0.01 0.01 72 1006.6
20260505222146 67 219 2.0 2.0 0.00 0.01 0.01 70 1006.3
20260505221644 67 230 2.0 2.0 0.00 0.01 0.01 70 1006.2
20260505221140 67 224 4.0 6.0 0.00 0.01 0.01 71 1006.3
20260505220637 67 228 1.0 2.0 0.00 0.01 0.01 70 1006.1
20260505220135 68 238 4.0 5.0 0.00 0.01 0.01 69 1006.2
20260505215632 68 243 1.0 1.0 0.00 0.01 0.01 69 1005.9
20260505215130 68 256 0.0 1.0 0.00 0.01 0.01 67 1005.8
20260505214628 68 236 1.0 2.0 0.00 0.01 0.01 68 1005.8
20260505214125 68 197 5.0 6.0 0.00 0.01 0.01 68 1005.7
20260505213623 68 211 4.0 5.0 0.00 0.01 0.01 67 1005.9
20260505213119 68 230 2.0 2.0 0.00 0.01 0.01 69 1005.7
20260505212615 68 224 2.0 2.0 0.00 0.01 0.01 70 1005.9
20260505212113 67 255 0.0 0.0 0.00 0.01 0.01 71 1005.8